Welcome to the New NWS' Forecast!
Most changes are behind the scenes, but click here for differences you might notice.
Latest weather observations around

Merkel Field Sylacauga Municipal Airport (KSCD)

Using International System of Units (Switch to English Units)
Date/ Time (CDT) Wind (kph) Vis. (km) Weather Sky Cond. Temp (°C) Rel. Humidity Wind Chill (°C) Heat Index (°C) Pressure Precip. (cm)
Air Dwpt 6 hour Altimeter (hPa) Sea level (hPa) 1 hr 3 hr 6 hr
Max Min
Aug 15 22:35 Calm 16.09 Clear CLR 25 25     100%   26 1019        
Aug 15 22:15 Calm 16.09 Clear CLR 25 25     100%   26 1019        
Aug 15 21:55 Calm 16.09 Clear CLR 24 24     100%   26 1019        
Aug 15 21:35 Calm 16.09 Partly Cloudy SCT110 25 25     100%   26 1019        
Aug 15 21:15 Calm 16.09 Partly Cloudy SCT110 25 25     100%   26 1018.6        
Aug 15 20:55 Calm 16.09 Clear CLR 25 25     100%   26 1018.6        
Aug 15 20:35 Calm 16.09 Clear CLR 25 25     100%   26 1018.3        
Aug 15 20:15 Calm 16.09 Partly Cloudy SCT120 26 24     89%   28 1018.3        
Aug 15 19:55 Calm 16.09 Clear CLR 27 24     86%   29 1018.3        
Aug 15 19:35 Calm 16.09 Clear CLR 28 24     76%   32 1018        
Aug 15 19:15 Calm 16.09 Partly Cloudy SCT110 30 23     69%   34 1018        
Aug 15 18:55 Calm 16.09 Clear CLR 30 23     67%   34 1017.6        
Aug 15 18:35 Calm 16.09 Clear CLR 31 23     63%   34 1018        
Aug 15 18:15 Calm 16.09 Partly Cloudy SCT110 31 22     58%   35 1018        
Aug 15 17:55 Calm 16.09 Clear CLR 32 21     53%   36 1018        
Aug 15 17:35 Calm 16.09 Partly Cloudy SCT055 SCT110 33 22     52%   37 1017.6        
Aug 15 17:15 Calm 16.09 Partly Cloudy SCT110 33 21     50%   36 1017.6        
Aug 15 16:55 Calm 16.09 Partly Cloudy SCT050 SCT060 SCT075 33 21     49%   36 1017.6        
Aug 15 16:35 Calm 16.09 Mostly Cloudy SCT050 SCT060 BKN110 33 22     51%   37 1018        
Aug 15 16:15 Calm 16.09 Cloudy BKN050 BKN060 OVC110 34 23     52%   39 1018        
Aug 15 15:55 Calm 16.09 Mostly Cloudy BKN050 BKN060 BKN110 34 22     52%   38 1018        
Aug 15 15:35 Calm 16.09 Partly Cloudy SCT049 SCT110 34 22     51%   38 1018        
Aug 15 15:15 Calm 16.09 Partly Cloudy SCT050 SCT085 SCT110 34 21     48%   37 1018        
Aug 15 14:55 Calm 16.09 Mostly Cloudy SCT050 BKN085 BKN110 34 21     49%   37 1018        
Aug 15 14:35 Calm 16.09 Mostly Cloudy SCT050 SCT075 BKN110 34 21     48%   37 1018.3        
Aug 15 14:15 Calm 16.09 Partly Cloudy SCT047 SCT055 34 22     50%   38 1018.6        
Aug 15 13:55 Calm 16.09 Mostly Cloudy BKN047 BKN055 34 22     52%   38 1018.6        
Aug 15 13:35 Calm 16.09 Cloudy BKN047 OVC055 33 22     53%   37 1019        
Aug 15 13:15 Calm 16.09 Mostly Cloudy BKN047 BKN055 BKN065 33 22     53%   37 1019        
Aug 15 12:55 Calm 16.09 Clear CLR 33 21     52%   36 1019.3        
Aug 15 12:35 Calm 16.09 Partly Cloudy SCT110 33 21     50%   35 1019.3        
Aug 15 12:15 Calm 16.09 Clear CLR 32 21     52%   36 1019.3        
Aug 15 11:55 Calm 16.09 Clear CLR 31 23     62%   36 1019.3        
Aug 15 11:35 Calm 16.09 Partly Cloudy SCT090 31 23     61%   36 1019.7        
Aug 15 11:15 Calm 11.27 Partly Cloudy SCT090 SCT120 30 22     62%   34 1019.7        
Aug 15 10:55 Calm 16.09 Partly Cloudy SCT110 30 22     65%   33 1019.7        
Aug 15 10:35 Calm 16.09 Partly Cloudy SCT100 29 22     66%   33 1020        
Aug 15 09:55 Calm 16.09 Clear CLR 28 22     73%   30 1020        
Aug 15 09:35 Calm 16.09 Clear CLR 27 22     76%   29 1019.7        
Aug 15 09:15 Calm 16.09 Partly Cloudy SCT100 27 23     79%   29 1019.7        
Aug 15 08:55 Calm 16.09 Clear CLR 26 25     96%   27 1019.7        
Aug 15 08:35 Calm 16.09 Clear CLR 24 24     100%   25 1019.3        
Aug 15 08:15 Calm 16.09 Partly Cloudy SCT110 24 24     100%   25 1019.3        
Aug 15 07:55 Calm 11.27 Clear CLR 23 23     100%   24 1019.3        
Aug 15 07:35 Calm 11.27 Partly Cloudy SCT110 22 22     100%   23 1019        
Aug 15 07:15 Calm 11.27 Partly Cloudy SCT110 21 21     100%   22 1019        
Aug 15 06:55 Calm 6.44 Fog/Mist SCT120 21 21     100%     1018.6        
Aug 15 06:35 Calm 4.83 Fog/Mist CLR 21 21     100%     1018.3        
Aug 15 06:15 Calm 6.44 Fog/Mist SCT120 21 21     100%     1018        
Aug 15 05:55 Calm 11.27 Clear CLR 21 21     100%     1018        
Aug 15 05:35 Calm 11.27 Clear CLR 21 21     100%     1018        
Aug 15 05:15 Calm 8.05 Fog/Mist SCT120 21 21     100%     1018        
Aug 15 04:55 Calm 11.27 Clear CLR 22 22     100%   22 1017.6        
Aug 15 04:35 Calm 11.27 Clear CLR 22 22     100%   22 1017.6        
Aug 15 04:15 Calm 16.09 Clear CLR 21 21     100%   22 1018        
Aug 15 03:55 Calm 16.09 Clear CLR 22 22     100%   23 1018        
Aug 15 03:35 Calm 11.27 Clear CLR 22 22     100%   22 1018        
Aug 15 03:15 Calm 11.27 Partly Cloudy SCT110 22 22     100%   22 1018        
Aug 15 02:55 Calm 11.27 Clear CLR 22 22     100%   23 1018        
Aug 15 02:35 Calm 11.27 Clear CLR 22 22     100%   23 1018        
Aug 15 02:15 Calm 11.27 Clear CLR 22 22     100%   23 1018        
Aug 15 01:55 Calm 11.27 Clear CLR 22 22     100%   23 1018        
Aug 15 01:35 Calm 16.09 Clear CLR 22 22     100%   23 1018        
Aug 15 01:15 Calm 16.09 Clear CLR 22 22     100%   23 1018        
Aug 15 00:55 Calm 16.09 Clear CLR 22 22     100%   23 1018.3        
Aug 15 00:35 Calm 16.09 Clear CLR 23 23     100%   24 1018.3        
Aug 15 00:15 Calm 16.09 Clear CLR 23 23     100%   24 1018.6        
Aug 14 23:55 Calm 16.09 Clear CLR 24 24     100%   25 1018.6        
Aug 14 23:35 Calm 16.09 Clear CLR 23 23     100%   24 1018.3        
Aug 14 23:15 Calm 16.09 Clear CLR 23 23     100%   24 1018.3        
Aug 14 22:55 Calm 16.09 Clear CLR 23 23     100%   24 1018.3        
Aug 14 22:35 Calm 16.09 Clear CLR 24 24     100%   25 1018.3        
Aug 14 22:15 Calm 16.09 Clear CLR 24 24     100%   25 1018.3        
Aug 14 21:55 Calm 16.09 Clear CLR 24 24     100%   25 1018        
Aug 14 21:35 Calm 16.09 Clear CLR 24 24     100%   25 1018        
Aug 14 21:15 Calm 16.09 Clear CLR 24 24     100%   25 1017.6        
Aug 14 20:55 Calm 16.09 Clear CLR 25 25     100%   26 1017.3        
Aug 14 20:35 Calm 16.09 Clear CLR 25 24     91%   26 1016.9        
Aug 14 20:15 Calm 16.09 Clear CLR 25 23     88%   26 1016.6        
Aug 14 19:55 Calm 16.09 Clear CLR 25 23     90%   26 1016.6        
Aug 14 19:35 Calm 16.09 Clear CLR 26 24     89%   26 1016.6        
Aug 14 19:15 Calm 16.09 Clear CLR 26 24     84%   29 1016.6        
Aug 14 18:55 Calm 16.09 Clear CLR 27 24     81%   30 1016.6        
Aug 14 18:35 Calm 16.09 Clear CLR 28 23     77%   31 1016.6        
Aug 14 18:15 Calm 16.09 Clear CLR 28 23     75%   32 1016.6        
Aug 14 17:55 Calm 16.09 Clear CLR 29 23     70%   33 1016.6        
Aug 14 17:35 Calm 16.09 Clear CLR 30 23     68%   34 1016.6        
Aug 14 17:15 Calm 16.09 Partly Cloudy SCT120 31 23     65%   35 1016.6        
Aug 14 16:55 Calm 16.09 Partly Cloudy SCT120 31 23     66%   35 1016.6        
Aug 14 16:35 Calm 16.09 Partly Cloudy SCT110 32 20     48%   35 1016.6        
Aug 14 16:15 Calm 16.09 Partly Cloudy SCT110 33 21     49%   36 1016.6        
Aug 14 15:55 Calm 16.09 Partly Cloudy SCT110 32 20     50%   35 1016.3        
Aug 14 15:35 Calm 16.09 Partly Cloudy SCT055 SCT110 33 20     49%   35 1016.3        
Aug 14 15:15 Calm 16.09 Partly Cloudy SCT110 33 21     48%   36 1016.3        
Aug 14 14:55 Calm 16.09 Partly Cloudy SCT110 33 21     49%   36 1016.6        
Aug 14 14:35 Calm 16.09 Clear CLR 33 20     47%   36 1016.6        
Aug 14 14:15 Calm 16.09 Clear CLR 33 20     47%   35 1016.9        
Aug 14 13:55 Calm 16.09 Partly Cloudy SCT110 33 21     49%   36 1016.9        
Aug 14 13:35 Calm 16.09 Clear CLR 32 21     53%   35 1016.9        
Aug 14 13:15 Calm 16.09 Partly Cloudy SCT110 32 21     51%   35 1017.3        
Aug 14 12:55 Calm 16.09 Partly Cloudy SCT100 32 20     50%   35 1017.6        
Aug 14 12:35 Calm 16.09 Partly Cloudy SCT110 32 21     53%   35 1017.6        
Aug 14 12:15 Calm 16.09 Partly Cloudy SCT110 31 21     54%   34 1018        
Aug 14 11:55 Calm 16.09 Clear CLR 32 21     52%   34 1018        
Aug 14 11:35 Calm 16.09 Partly Cloudy SCT100 SCT120 32 20     50%   34 1018.3        
Notice The following observation data may not be complete
Aug 14 11:15   16.09 Partly Cloudy SCT100          %              
Aug 14 10:55 Calm 16.09 Partly Cloudy SCT100 31 19     50%   32 1018.3        
Aug 14 10:35 Calm 16.09 Clear CLR 31 21     55%   33 1018.3        
Notice The following observation data may not be complete
Aug 14 10:15   16.09 Clear CLR          %              
Aug 14 09:55 Calm 16.09 Clear CLR 29 21     64%   31 1018.3        
Notice The following observation data may not be complete
Aug 14 09:35   16.09 Clear CLR          %              
Aug 14 09:15 Calm 16.09 Partly Cloudy SCT100 SCT120 27 22     72%   29 1018        
Aug 14 08:35 Calm 16.09 Partly Cloudy SCT090 26 24     91%   26 1018        
Aug 14 08:15 Calm 16.09 Mostly Cloudy BKN090 BKN120 24 24     100%   25 1018        
Aug 14 07:55 Calm 16.09 Cloudy SCT090 OVC120 23 23     100%   24 1018        
Aug 14 07:35 Calm 16.09 Mostly Cloudy BKN120 23 23     100%   24 1017.6        
Aug 14 07:15 Calm 11.27 Clear CLR 22 22     100%   23 1017.6        
Aug 14 06:55 Calm 11.27 Clear CLR 22 22     100%   22 1017.6        
Aug 14 06:35 Calm 8.05 Fog/Mist CLR 21 21     100%   22 1017.6        
Aug 14 06:15 Calm 8.05 Fog/Mist CLR 21 21     100%     1017.6        
Aug 14 05:55 Calm 8.05 Fog/Mist CLR 21 21     100%     1017.3        
Aug 14 05:35 Calm 11.27 Clear CLR 21 21     100%   22 1016.9        
Aug 14 05:15 Calm 8.05 Fog/Mist CLR 21 21     100%     1016.9        
Aug 14 04:55 Calm 6.44 Fog/Mist CLR 21 21     100%     1016.9        
Aug 14 04:35 Calm 8.05 Fog/Mist CLR 22 22     100%   22 1016.9        
Aug 14 04:15 Calm 11.27 Clear CLR 22 22     100%   23 1016.9        
Aug 14 03:55 Calm 11.27 Clear CLR 22 22     100%   23 1016.9        
Aug 14 03:35 Calm 11.27 Clear CLR 22 22     100%   23 1016.6        
Aug 14 03:15 Calm 8.05 Fog/Mist CLR 22 22     100%   23 1016.6        
Aug 14 02:55 Calm 8.05 Fog/Mist CLR 22 22     100%   23 1016.6        
Aug 14 02:35 Calm 8.05 Fog/Mist CLR 22 22     100%   23 1016.6        
Aug 14 02:15 Calm 6.44 Fog/Mist CLR 22 22     100%   23 1016.9        
Aug 14 01:55 Calm 11.27 Clear CLR 22 22     100%   23 1016.6        
Notice The following observation data may not be complete
Aug 14 01:15   11.27 Clear CLR          %              
Aug 14 00:55 Calm 8.05 Fog/Mist CLR 23 23     100%   23 1016.9        
Aug 14 00:35 Calm 11.27 Clear CLR 23 23     100%   24 1016.9        
Aug 14 00:15 Calm 11.27 Clear CLR 23 23     100%   24 1017.3        
Aug 13 23:35 Calm 16.09 Mostly Cloudy BKN110 24 24     100%   25 1017.6        
Aug 13 23:15 Calm 16.09 Partly Cloudy SCT110 24 24     100%   25 1017.6        
Aug 13 22:55 Calm 11.27 Clear CLR 24 24     100%   25 1017.6        
Aug 13 22:35 Calm 16.09 Clear CLR 24 24     100%   25 1017.6        
Aug 13 22:15 Calm 16.09 Clear CLR 24 24     100%   26 1017.3        
Aug 13 21:55 Calm 16.09 Clear CLR 25 24     95%   26 1017.3        
Aug 13 21:35 Calm 16.09 Clear CLR 26 24     88%   27 1017.3        
Aug 13 21:15 Calm 16.09 Clear CLR 25 24     94%   26 1016.9        
Aug 13 20:55 Calm 16.09 Clear CLR 26 23     88%   26 1016.6        
Aug 13 20:35 Calm 16.09 Clear CLR 26 23     84%   28 1016.6        
Aug 13 20:15 Calm 16.09 Partly Cloudy SCT060 27 23     83%   29 1016.6        
Aug 13 19:55 Calm 16.09 Partly Cloudy SCT060 27 24     82%   30 1016.3        
Aug 13 19:35 Calm 16.09 Partly Cloudy SCT060 SCT070 SCT100 28 25     85%   32 1015.9        
Aug 13 19:15 Calm 16.09 Mostly Cloudy BKN055 BKN110 28 25     81%   33 1015.9        
Aug 13 18:55 Calm 16.09 Partly Cloudy SCT065 SCT110 29 24     72%   34 1015.6        
Aug 13 18:35 Calm 16.09 Clear CLR 30 24     72%   34 1015.6        
Aug 13 18:15 Calm 16.09 Clear CLR 31 22     59%   35 1015.6        
Aug 13 17:55 Calm 16.09 Clear CLR 31 23     60%   36 1015.9        
Notice The following observation data may not be complete
Aug 13 17:35   16.09 Partly Cloudy SCT050          %              
Aug 13 16:55 Calm 16.09 Partly Cloudy SCT048 SCT110 32 22     56%   36 1015.9        
Aug 13 16:35 Calm 16.09 Mostly Cloudy BKN050 BKN060 32 22     55%   36 1015.9        
Aug 13 16:15 Calm 16.09 Mostly Cloudy BKN050 32 22     55%   36 1015.9        
Aug 13 15:55 Calm 16.09 Clear CLR 32 22     54%   36 1015.9        
Aug 13 15:35 Calm 16.09 Clear CLR 33 22     54%   36 1016.3        
Aug 13 15:15 Calm 16.09 Clear CLR 33 22     52%   36 1016.3        
Aug 13 14:55 Calm 16.09 Clear CLR 33 21     49%   35 1016.6        
Aug 13 14:35 Calm 16.09 Clear CLR 33 22     50%   37 1016.9        
Aug 13 13:55 Calm 16.09 Clear CLR 32 21     50%   35 1017.6        
Aug 13 13:35 Calm 16.09 Clear CLR 33 21     49%   35 1018        
Aug 13 13:15 Calm 16.09 Partly Cloudy SCT044 SCT075 SCT090 31 21     56%   34 1018        
Aug 13 12:55 Calm 16.09 Partly Cloudy SCT095 SCT120 32 21     52%   35 1018.3        
Aug 13 12:35 Calm 16.09 Partly Cloudy SCT095 SCT110 32 22     56%   35 1018.3        
Aug 13 12:15 Calm 16.09 Partly Cloudy SCT038 32 21     54%   35 1018.3        
Aug 13 11:55 Calm 16.09 Mostly Cloudy SCT035 SCT085 BKN110 31 23     63%   36 1018.6        
Aug 13 11:35 Calm 16.09 Partly Cloudy SCT110 31 23     64%   35 1018.6        
Aug 13 11:15 Calm 16.09 Partly Cloudy SCT110 30 23     66%   35 1018.6        
Aug 13 10:55 Calm 16.09 Clear CLR 30 23     70%   34 1018.6        
Aug 13 10:35 Calm 16.09 Clear CLR 28 25     82%   33 1018.6        
Aug 13 10:15 Calm 16.09 Clear CLR 27 25     86%   31 1019        
Aug 13 09:55 Calm 16.09 Clear CLR 26 25     92%   28 1019        
Aug 13 09:35 Calm 16.09 Clear CLR 25 25     98%   27 1018.6        
Aug 13 09:15 Calm 16.09 Clear CLR 25 25     100%   26 1019        
Notice The following observation data may not be complete
Aug 13 08:35   16.09 Clear CLR          %              
Aug 13 07:35 Calm 11.27 Clear CLR 22 22     100%   23 1018.3        
Aug 13 06:55 Calm 11.27 Partly Cloudy SCT110 22 22     100%   23 1018        
Aug 13 06:35 Calm 11.27 Clear CLR 22 22     100%   22 1017.6        
Aug 13 06:15 Calm 16.09 Partly Cloudy SCT120 22 22     100%   22 1018        
Aug 13 05:55 Calm 11.27 Clear CLR 22 22     100%   22 1017.6        
Aug 13 03:15 Calm 11.27 Clear CLR 22 22     100%   22 1017.6        
Aug 13 02:35 Calm 16.09 Clear CLR 22 22     100%   23 1017.6        
Aug 13 02:15 Calm 16.09 Clear CLR 22 22     100%   23 1017.6        
Aug 13 01:55 Calm 16.09 Clear CLR 22 22     100%   23 1017.6        
Aug 13 01:35 Calm 16.09 Clear CLR 22 22     100%   23 1017.6        
Aug 13 01:15 Calm 16.09 Clear CLR 23 23     100%   24 1018        
Aug 13 00:55 Calm 16.09 Clear CLR 23 23     100%   24 1018.3        
Aug 13 00:15 Calm 16.09 Clear CLR 23 23     100%   24 1018.6        
Aug 12 23:35 Calm 16.09 Partly Cloudy SCT050 25 24     99%   26 1018.6        
Aug 12 23:15 Calm 16.09 Mostly Cloudy BKN050 25 25     100%   26 1018.6        
Aug 12 22:55 Calm 16.09 Mostly Cloudy BKN050 BKN075 BKN120 25 25     100%   26 1019        
Aug 12 22:35 Calm 16.09 Partly Cloudy SCT050 SCT080 25 25     100%   26 1018.6        
Aug 12 22:15 Calm 16.09 Partly Cloudy SCT050 25 25     100%   26 1018.6        
Aug 12 21:35 Calm 16.09 Clear CLR 26 25     96%   27 1018.3        
Aug 12 21:15 Calm 16.09 Clear CLR 26 25     98%   27 1018.3        
Aug 12 20:55 Calm 16.09 Partly Cloudy SCT055 25 25     100%   26 1017.6        
Aug 12 20:35 Calm 16.09 Partly Cloudy SCT055 SCT065 26 24     91%   26 1017.3        
May 15 02:15 Calm 16.09 Clear CLR 21 19     91%     1014.9        
May 14 12:35 NNW 5 16.09 Mostly Cloudy SCT060 BKN070 31 18     47%   32 1017.3        
May 13 06:15 Calm 16.09 Clear CLR 15 15     100%     1020.3        
May 12 16:15 W 5 16.09 Clear CLR 32 15     36%   31 1019.3        
May 12 14:35 W 13 16.09 Clear CLR 32 15     37%   31 1020        
May 12 12:15 N 9 16.09 Clear CLR 30 15     39%   30 1021.3        
May 12 01:35 Calm 11.27 Clear CLR 16 16     100%     1019.3        
May 11 23:15 Calm 16.09 Clear CLR 18 18     100%     1019.7        
May 11 21:55 Calm 16.09 Clear CLR 19 19     98%     1019.7        
May 11 21:15 Calm 16.09 Clear CLR 21 19     89%     1019.3        
May 11 17:35 WSW 9 16.09 Clear CLR 30 16     41%   30 1018        
May 11 15:35 SW 9 16.09 Clear CLR 31 15     38%   31 1018.6        
Notice The following observation data may not be complete
May 11 12:35   16.09 Clear CLR          %              
Jun 12 04:15 Calm 16.09 Clear CLR 22 22     100%   23 1020.7        
Jun 12 03:55 Calm 16.09 Clear CLR 23 23     100%   24 1020.7        
Jun 11 21:55 Calm 16.09 Clear   26 22     79%   27 1021        
Jun 11 20:55 SSE 8 16.09 Clear   27 23     79%   29 1020        
Jun 11 17:15 S 9 16.09 Partly Cloudy SCT045 32 22     54%   37 1019        
Jun 11 15:15 SE 13 16.09 Partly Cloudy SCT045 32 22     56%   35 1020        
Jun 11 09:55 S 8 16.09 Mostly Cloudy BKN020 BKN085 28 23     74%   32 1021.7        
Jun 11 09:15 SE 11 16.09 Partly Cloudy SCT016 SCT110 27 23     77%   30 1021.7        
Notice The following observation data may not be complete
Jun 11 02:35   16.09 Clear CLR          %              
Jun 11 02:15 Calm 16.09 Clear   19 19     100%     1019        
Jun 11 00:15 Calm 16.09 Clear CLR 20 20     100%     1019.7        
Jun 10 18:35 SSE 5 16.09 Clear   28 18     54%   29 1017.6        
Jun 10 16:35 SE 8 16.09 Clear CLR 31 16     42%   31 1017.6        
Jun 10 13:35 SSE 13 16.09 Partly Cloudy SCT065 SCT075 31 18     47%   31 1019        
Jun 10 12:55 SSE 5 16.09 Mostly Cloudy SCT060 BKN075 31 17     44%   31 1019.3        
Jun 10 11:35 S 8 16.09 Partly Cloudy SCT065 30 16     42%   30 1019.7        
Jun 10 09:15 Calm 16.09 Partly Cloudy SCT080 SCT100 27 20     68%   28 1019.3        
Jun 10 05:15 Calm 16.09 Mostly Cloudy BKN080 BKN095 17 17     100%     1016.9        
Jun 10 03:15 Calm 16.09 Partly Cloudy SCT060 SCT070 18 18     100%     1016.3        
Jun 10 02:35 Calm 16.09 Partly Cloudy SCT060 18 18     100%     1016.3        
Jun 09 20:35 Calm 16.09 Clear CLR 22 20     86%   23 1014.6        
Jun 09 05:35 Calm 16.09 Partly Cloudy SCT060 16 16     100%     1014.2        
Jun 08 18:35 Calm 16.09 Partly Cloudy SCT110 26 17     56%   26 1011.2        
Jun 08 02:15 Calm 16.09 Clear CLR 16 16     100%     1011.5        
Jun 08 01:55 Calm 16.09 Clear CLR 16 16     97%     1011.5        
Jun 07 17:35 NNE 8 16.09 Clear CLR 28 16     49%   28 1009.8        
Jun 07 11:35 NE 13 16.09 Clear   26 20     69%   28 1009.8        
Jun 07 09:35 NE 11 16.09 Clear CLR 23 18     72%   24 1009.8        
Jun 06 10:55 Calm 16.09 Light Drizzle SCT005 BKN049 OVC055 22 22     100%   23 1009.8   0    
Notice The following observation data may not be complete
Jun 06 05:55   16.09 Cloudy OVC005          %              
Jun 06 04:55 Calm 16.09 Cloudy BKN005 BKN055 OVC070 22 22     100%   23 1009.2        
Jun 06 03:35 Calm 16.09 Light Rain SCT037 SCT048 SCT070 22 22     100%   23 1009.2        
Jun 06 01:55 Calm 16.09 Cloudy SCT035 BKN042 OVC065 22 22     100%   23 1009.5        
Jun 05 15:55 ENE 8 11.27 Rain SCT005 BKN048 OVC100 23 23     100%   25 1009.5   0 1